Falfurrias, TX

12:30 PM CST on November 21, 2019 (GMT -0600)
Falfurrias

Weather History for KBKS - August, 2019

Change the Weather History Date:

Thursday, August 8, 2019

  Actual Average (KNQI) Record (KNQI)
Temperature  
Mean Temperature 92 °F -  
Max Temperature 105 °F 95 °F 104 °F (2019)
Min Temperature 79 °F 74 °F 73 °F (2005)
Cooling Degree Days 27    
Growing Degree Days 42 (Base 50)    
Moisture  
Dew Point 72 °F    
Average Humidity 60    
Maximum Humidity 92    
Minimum Humidity 24    
Precipitation  
Precipitation 0.00 in - - ()
Sea Level Pressure  
Sea Level Pressure 29.87 in    
Wind  
Wind Speed 9 mph ()    
Max Wind Speed 21 mph    
Max Gust Speed 29 mph    
Visibility 9.4 miles    
Events      
Averages and records for this station are not official NWS values.
T = Trace of Precipitation, MM = Missing Value Source: Averaged Metar Reports

Daily Weather History Graph

Daily Weather History Graph

Search for Another Location

Airport or City:

Astronomy

Aug. 08, 2019 Rise Set
Actual Time 7:00 AM CDT 8:15 PM CDT
Civil Twilight 6:35 AM CDT 8:40 PM CDT
Nautical Twilight 6:05 AM CDT 9:09 PM CDT
Astronomical Twilight 5:35 AM CDT 9:40 PM CDT
Moon 2:52 PM CDT (8/8) 1:19 AM CDT (8/8)
Length of Visible Light 14h 05m
Length of Day
13h 15m
First Quarter, 60% of the Moon is Illuminated
Aug 8
First Quarter
Aug 15
Full
Aug 23
Last Quarter
Aug 30
New
Sep 5
First Quarter

Hourly Weather History & Observations

Time (CDT) Temp. Heat Index Dew Point Humidity Pressure Visibility Wind Dir Wind Speed Gust Speed Precip Events Conditions
12:15 AM 84.2 °F 93.8 °F 76.6 °F 78% 29.91 in 10.0 mi SE 6.9 mph - N/A   Clear
12:35 AM 83.7 °F 92.7 °F 76.6 °F 79% 29.91 in 10.0 mi SE 6.9 mph - N/A   Clear
12:55 AM 83.5 °F 92.6 °F 76.6 °F 80% 29.91 in 10.0 mi SE 5.8 mph - N/A   Clear
1:15 AM 83.3 °F 92.1 °F 76.5 °F 80% 29.91 in 10.0 mi SE 5.8 mph - N/A   Clear
1:35 AM 82.8 °F 91.0 °F 76.5 °F 81% 29.91 in 10.0 mi SE 4.6 mph - N/A   Clear
1:55 AM 82.4 °F 90.3 °F 76.5 °F 82% 29.91 in 10.0 mi ESE 4.6 mph - N/A   Clear
2:15 AM 81.5 °F 88.5 °F 76.3 °F 84% 29.91 in 10.0 mi Calm Calm - N/A   Clear
2:35 AM 81.0 °F 87.5 °F 76.3 °F 86% 29.91 in 10.0 mi ESE 3.5 mph - N/A   Clear
2:55 AM 80.6 °F 86.6 °F 76.1 °F 86% 29.91 in 10.0 mi East 3.5 mph - N/A   Scattered Clouds
3:15 AM 80.1 °F 85.5 °F 76.1 °F 88% 29.90 in 10.0 mi East 3.5 mph - N/A   Scattered Clouds
3:35 AM 80.1 °F 85.5 °F 76.1 °F 88% 29.89 in 10.0 mi SE 4.6 mph - N/A   Clear
3:55 AM 80.1 °F 85.5 °F 76.1 °F 88% 29.88 in 10.0 mi ESE 3.5 mph - N/A   Clear
4:15 AM 79.9 °F - 76.1 °F 88% 29.88 in 10.0 mi Calm Calm - N/A   Clear
4:35 AM 79.7 °F - 76.1 °F 89% 29.88 in 7.0 mi Calm Calm - N/A   Scattered Clouds
4:55 AM 79.9 °F - 76.5 °F 89% 29.88 in 7.0 mi Calm Calm - N/A   Scattered Clouds
5:15 AM 79.7 °F - 76.5 °F 90% 29.88 in 7.0 mi Calm Calm - N/A   Mostly Cloudy
5:35 AM 79.7 °F - 76.5 °F 90% 29.88 in 7.0 mi East 3.5 mph - N/A   Overcast
5:55 AM 79.9 °F - 77.0 °F 91% 29.88 in 7.0 mi ESE 4.6 mph - N/A   Mostly Cloudy
6:15 AM 79.7 °F - 77.0 °F 91% 29.89 in 5.0 mi East 3.5 mph - N/A   Clear
6:35 AM 79.2 °F - 76.5 °F 91% 29.89 in 5.0 mi East 3.5 mph - N/A   Clear
6:55 AM 79.0 °F - 76.5 °F 92% 29.89 in 5.0 mi ESE 4.6 mph - N/A   Clear
7:15 AM 79.2 °F - 76.6 °F 92% 29.89 in 5.0 mi ESE 4.6 mph - N/A   Clear
7:35 AM 79.7 °F - 77.2 °F 92% 29.89 in 4.0 mi SE 4.6 mph - N/A   Scattered Clouds
7:55 AM 81.0 °F 88.6 °F 78.1 °F 91% 29.89 in 7.0 mi SE 6.9 mph - N/A   Clear
8:15 AM 82.9 °F 93.1 °F 78.3 °F 86% 29.89 in 10.0 mi SE 11.5 mph - N/A   Clear
8:35 AM 84.6 °F 96.0 °F 78.3 °F 81% 29.90 in 10.0 mi SSE 12.7 mph 18.4 mph N/A   Clear
8:55 AM 86.0 °F 98.3 °F 78.1 °F 77% 29.90 in 10.0 mi SSE 11.5 mph 19.6 mph N/A   Scattered Clouds
9:15 AM 88.3 °F 100.6 °F 77.0 °F 69% 29.91 in 10.0 mi SSE 17.3 mph 21.9 mph N/A   Scattered Clouds
9:35 AM 89.8 °F 101.5 °F 76.3 °F 64% 29.91 in 10.0 mi SSE 16.1 mph 23.0 mph N/A   Clear
9:55 AM 91.8 °F 100.9 °F 73.6 °F 55% 29.92 in 10.0 mi South 20.7 mph 25.3 mph N/A   Clear
10:15 AM 93.2 °F 102.4 °F 73.2 °F 52% 29.91 in 10.0 mi South 16.1 mph 26.5 mph N/A   Clear
10:35 AM 95.0 °F 103.2 °F 72.0 °F 47% 29.91 in 10.0 mi South 20.7 mph 26.5 mph N/A   Clear
10:55 AM 96.3 °F 103.9 °F 70.9 °F 44% 29.91 in 10.0 mi South 17.3 mph 24.2 mph N/A   Clear
11:15 AM 96.8 °F 103.8 °F 70.3 °F 42% 29.91 in 10.0 mi South 18.4 mph 27.6 mph N/A   Clear
11:35 AM 99.0 °F 105.5 °F 69.1 °F 38% 29.91 in 10.0 mi SSE 18.4 mph 23.0 mph N/A   Clear
11:55 AM 99.0 °F 104.8 °F 68.2 °F 37% 29.91 in 10.0 mi SSE 15.0 mph 25.3 mph N/A   Clear
12:15 PM 100.0 °F 107.0 °F 69.1 °F 37% 29.90 in 10.0 mi SSE 19.6 mph 28.8 mph N/A   Clear
12:55 PM 101.5 °F 107.0 °F 67.8 °F 33% 29.89 in 10.0 mi South 17.3 mph 25.3 mph N/A   Scattered Clouds
1:15 PM 102.4 °F 106.6 °F 65.7 °F 30% 29.89 in 10.0 mi SSE 19.6 mph 26.5 mph N/A   Clear
1:35 PM 102.7 °F 107.2 °F 65.5 °F 30% 29.88 in 10.0 mi SSE 16.1 mph 25.3 mph N/A   Clear
1:55 PM 102.9 °F 107.6 °F 65.5 °F 30% 29.87 in 10.0 mi SE 17.3 mph 24.2 mph N/A   Clear
2:15 PM 104.4 °F 108.8 °F 64.9 °F 28% 29.87 in 10.0 mi SSE 16.1 mph 24.2 mph N/A   Clear
2:35 PM 104.0 °F 106.6 °F 63.3 °F 26% 29.85 in 10.0 mi SSE 18.4 mph 26.5 mph N/A   Clear
2:55 PM 104.7 °F 107.9 °F 63.7 °F 26% 29.85 in 10.0 mi SE 18.4 mph 25.3 mph N/A   Clear
3:15 PM 104.9 °F 108.2 °F 63.3 °F 26% 29.84 in 10.0 mi SE 19.6 mph 25.3 mph N/A   Clear
3:35 PM 105.8 °F 108.3 °F 62.4 °F 24% 29.84 in 10.0 mi SSE 16.1 mph 27.6 mph N/A   Clear
3:55 PM 104.7 °F 107.9 °F 63.7 °F 26% 29.83 in 10.0 mi SSE 16.1 mph 25.3 mph N/A   Clear
4:15 PM 105.3 °F 109.6 °F 65.3 °F 27% 29.82 in 10.0 mi South 20.7 mph 25.3 mph N/A   Clear
4:35 PM 104.4 °F 109.5 °F 65.8 °F 29% 29.81 in 10.0 mi SE 16.1 mph 25.3 mph N/A   Clear
4:55 PM 104.7 °F 108.6 °F 64.9 °F 27% 29.81 in 10.0 mi SSE 13.8 mph 23.0 mph N/A   Clear
5:15 PM 104.2 °F 108.4 °F 64.8 °F 28% 29.80 in 10.0 mi SE 15.0 mph 20.7 mph N/A   Clear
5:35 PM 103.6 °F 107.4 °F 64.9 °F 28% 29.80 in 10.0 mi SE 20.7 mph 25.3 mph N/A   Clear
5:55 PM 103.8 °F 106.3 °F 62.4 °F 26% 29.81 in 10.0 mi SE 15.0 mph 23.0 mph N/A   Clear
6:15 PM 103.3 °F 105.4 °F 62.2 °F 26% 29.80 in 10.0 mi SE 13.8 mph 20.7 mph N/A   Clear
6:35 PM 102.6 °F 104.8 °F 62.4 °F 27% 29.80 in 10.0 mi SSE 18.4 mph 24.2 mph N/A   Clear
6:55 PM 102.0 °F 105.2 °F 64.4 °F 29% 29.80 in 10.0 mi SSE 18.4 mph 23.0 mph N/A   Clear
7:15 PM 100.6 °F 103.9 °F 64.8 °F 31% 29.80 in 10.0 mi SSE 18.4 mph 24.2 mph N/A   Clear
7:35 PM 97.7 °F 107.9 °F 73.4 °F 45% 29.80 in 10.0 mi SE 15.0 mph 20.7 mph N/A   Clear
7:55 PM 95.5 °F 105.1 °F 72.9 °F 48% 29.81 in 10.0 mi SE 12.7 mph 23.0 mph N/A   Clear
8:15 PM 93.7 °F 104.3 °F 74.1 °F 53% 29.82 in 10.0 mi SE 15.0 mph 18.4 mph N/A   Clear
8:35 PM 91.9 °F 103.2 °F 75.4 °F 58% 29.83 in 10.0 mi ESE 13.8 mph 18.4 mph N/A   Clear
8:55 PM 90.5 °F 102.7 °F 76.5 °F 63% 29.84 in 10.0 mi ESE 11.5 mph - N/A   Clear
9:15 PM 89.4 °F 102.3 °F 77.0 °F 67% 29.85 in 10.0 mi ESE 12.7 mph 18.4 mph N/A   Clear
9:35 PM 88.3 °F 100.6 °F 77.2 °F 69% 29.87 in 10.0 mi SE 8.1 mph - N/A   Clear
9:55 PM 87.8 °F 100.2 °F 77.2 °F 71% 29.87 in 10.0 mi SE 11.5 mph - N/A   Clear
10:15 PM 86.9 °F 98.8 °F 77.2 °F 73% 29.88 in 10.0 mi SE 12.7 mph 18.4 mph N/A   Clear
10:35 PM 86.7 °F 98.3 °F 77.0 °F 73% 29.88 in 10.0 mi SE 13.8 mph - N/A   Clear
10:55 PM 86.4 °F 97.8 °F 77.0 °F 74% 29.89 in 10.0 mi SE 12.7 mph 18.4 mph N/A   Clear
11:15 PM 86.0 °F 97.3 °F 77.2 °F 75% 29.90 in 10.0 mi SSE 11.5 mph - N/A   Clear
11:35 PM 85.5 °F 96.3 °F 77.2 °F 76% 29.90 in 10.0 mi SE 10.4 mph - N/A   Clear
11:55 PM 85.3 °F 96.3 °F 77.4 °F 77% 29.90 in 10.0 mi SE 9.2 mph 18.4 mph N/A   Clear